^^
Your Local Weather - Clay, NY Station Historical Data
Daily Summary for March 6, 2018 Units:  Metric    English   Both
« Previous Day
Next Day »
Daily Weekly Monthly Yearly Custom
  High: Low: Average:
Temperature: 4.9 °C -2.3 °C 1.2 °C
Dew Point: -0.3 °C -5.2 °C -3.8 °C
Humidity: 91% 54% 71%
Wind Speed: 9.7km/h 0km/h 3.5km/h
Wind Gust: 20.9km/h - -
Wind- - ESE
Pressure: 1019.2 hPa 1009 hPa -
Precipitation: 2.29 mm    
Historical Graphs
 
 
Tabular Data for March 6, 2018
Time Temperature Dew Point Pressure Wind Wind Speed Wind Gust Humidity Rainfall Rate (Hourly) solar
00:02 -1.4 °C -5.1 °C 1019.2 hPa Calm     76% 0 mm 0 W/m2
00:08 -1.4 °C -5.1 °C 1019.2 hPa Calm     76% 0 mm 0 W/m2
00:14 -1.5 °C -5.2 °C 1019.2 hPa Calm     76% 0 mm 0 W/m2
00:20 -1.5 °C -5.2 °C 1019.2 hPa Calm     76% 0 mm 0 W/m2
00:26 -1.5 °C -5.2 °C 1019.2 hPa Calm     76% 0 mm 0 W/m2
00:32 -1.5 °C -5.2 °C 1019.2 hPa Calm     76% 0 mm 0 W/m2
00:38 -1.5 °C -5 °C 1019.2 hPa Calm     77% 0 mm 0 W/m2
00:44 -1.6 °C -5.1 °C 1019.2 hPa Calm     77% 0 mm 0 W/m2
00:50 -1.6 °C -5.1 °C 1019.2 hPa Calm     77% 0 mm 0 W/m2
00:56 -1.6 °C -5.1 °C 1019.2 hPa Calm     77% 0 mm 0 W/m2
01:02 -1.6 °C -5.1 °C 1018.8 hPa Calm     77% 0 mm 0 W/m2
01:08 -1.6 °C -5.1 °C 1018.8 hPa Calm     77% 0 mm 0 W/m2
01:14 -1.7 °C -5 °C 1018.8 hPa Calm     78% 0 mm 0 W/m2
01:20 -1.7 °C -5 °C 1018.8 hPa Calm     78% 0 mm 0 W/m2
01:26 -1.7 °C -5.1 °C 1018.8 hPa Calm     78% 0 mm 0 W/m2
01:32 -1.7 °C -4.9 °C 1018.8 hPa Calm     79% 0 mm 0 W/m2
01:40 -1.8 °C -4.8 °C 1018.5 hPa Calm     80% 0 mm 0 W/m2
01:46 -1.8 °C -4.8 °C 1018.5 hPa Calm     80% 0 mm 0 W/m2
01:52 -1.8 °C -4.8 °C 1018.5 hPa Calm     80% 0 mm 0 W/m2
02:00 -1.8 °C -4.8 °C 1018.5 hPa Calm     80% 0 mm 0 W/m2
02:06 -1.8 °C -4.8 °C 1018.2 hPa Calm     80% 0 mm 0 W/m2
02:12 -1.8 °C -4.8 °C 1018.2 hPa Calm     80% 0 mm 0 W/m2
02:18 -1.8 °C -4.8 °C 1018.2 hPa Calm     80% 0 mm 0 W/m2
02:24 -1.7 °C -4.7 °C 1018.2 hPa North 1.6 km/h 1.6 km/h 80% 0 mm 0 W/m2
02:30 -1.7 °C -4.7 °C 1018.2 hPa Calm     80% 0 mm 0 W/m2
02:36 -1.8 °C -4.6 °C 1018.2 hPa Calm     81% 0 mm 0 W/m2
02:42 -1.8 °C -4.7 °C 1018.2 hPa Calm     81% 0 mm 0 W/m2
02:48 -1.8 °C -4.7 °C 1018.2 hPa Calm     81% 0 mm 0 W/m2
02:54 -1.9 °C -4.7 °C 1017.8 hPa Calm     81% 0 mm 0 W/m2
03:00 -1.9 °C -4.7 °C 1018.2 hPa Calm     81% 0 mm 0 W/m2
03:06 -1.8 °C -4.7 °C 1018.2 hPa Calm     81% 0 mm 0 W/m2
03:12 -1.8 °C -4.7 °C 1017.8 hPa Calm     81% 0 mm 0 W/m2
03:18 -1.8 °C -4.7 °C 1017.8 hPa Calm     81% 0 mm 0 W/m2
03:24 -1.9 °C -4.7 °C 1017.8 hPa Calm     81% 0 mm 0 W/m2
03:30 -1.9 °C -4.6 °C 1017.8 hPa Calm     82% 0 mm 0 W/m2
03:36 -1.9 °C -4.7 °C 1018.2 hPa Calm   1.6 km/h 81% 0 mm 0 W/m2
03:42 -1.8 °C -4.5 °C 1017.8 hPa Calm     82% 0 mm 0 W/m2
03:48 -1.8 °C -4.7 °C 1017.8 hPa Calm     81% 0 mm 0 W/m2
03:54 -1.8 °C -4.6 °C 1017.8 hPa Calm     81% 0 mm 0 W/m2
04:00 -1.8 °C -4.6 °C 1017.8 hPa Calm     81% 0 mm 0 W/m2
04:06 -1.8 °C -4.6 °C 1017.8 hPa Calm   4.8 km/h 81% 0 mm 0 W/m2
04:12 -1.8 °C -4.7 °C 1017.8 hPa NW 1.6 km/h 1.6 km/h 81% 0 mm 0 W/m2
04:18 -1.8 °C -4.5 °C 1017.5 hPa Calm   1.6 km/h 82% 0 mm 0 W/m2
04:24 -1.9 °C -4.6 °C 1017.5 hPa Calm     82% 0 mm 0 W/m2
04:30 -1.9 °C -4.6 °C 1017.8 hPa Calm     82% 0 mm 0 W/m2
04:36 -1.9 °C -4.6 °C 1017.8 hPa Calm   1.6 km/h 82% 0 mm 0 W/m2
04:42 -1.9 °C -4.6 °C 1017.8 hPa Calm     82% 0 mm 0 W/m2
04:48 -1.9 °C -4.6 °C 1017.8 hPa Calm     82% 0 mm 0 W/m2
04:54 -1.9 °C -4.6 °C 1017.5 hPa Calm     82% 0 mm 0 W/m2
05:00 -1.9 °C -4.6 °C 1017.5 hPa Calm     82% 0 mm 0 W/m2
05:06 -1.9 °C -4.6 °C 1017.5 hPa Calm     82% 0 mm 0 W/m2
05:12 -2 °C -4.5 °C 1017.5 hPa Calm     83% 0 mm 0 W/m2
05:18 -2 °C -4.5 °C 1017.2 hPa Calm     83% 0 mm 0 W/m2
05:24 -2 °C -4.5 °C 1017.2 hPa Calm     83% 0 mm 0 W/m2
05:30 -2.1 °C -4.6 °C 1017.2 hPa Calm     83% 0 mm 0 W/m2
05:36 -2.1 °C -4.6 °C 1017.5 hPa Calm   1.6 km/h 83% 0 mm 0 W/m2
05:42 -2.1 °C -4.4 °C 1017.5 hPa NW 1.6 km/h 1.6 km/h 84% 0 mm 0 W/m2
05:48 -2.1 °C -4.4 °C 1017.2 hPa Calm   1.6 km/h 84% 0 mm 0 W/m2
05:54 -2.1 °C -4.4 °C 1017.2 hPa Calm     84% 0 mm 0 W/m2
06:00 -2.1 °C -4.4 °C 1017.2 hPa Calm     84% 0 mm 0 W/m2
06:06 -2.2 °C -4.5 °C 1017.5 hPa Calm     84% 0 mm 0 W/m2
06:12 -2.2 °C -4.5 °C 1017.2 hPa Calm     84% 0 mm 0 W/m2
06:18 -2.2 °C -4.6 °C 1017.2 hPa Calm   1.6 km/h 84% 0 mm 0 W/m2
06:24 -2.2 °C -4.6 °C 1017.2 hPa Calm     84% 0 mm 0 W/m2
06:30 -2.2 °C -4.4 °C 1017.2 hPa Calm     85% 0 mm 0 W/m2
06:36 -2.2 °C -4.4 °C 1017.2 hPa Calm     85% 0 mm 0 W/m2
06:42 -2.3 °C -4.4 °C 1017.2 hPa Calm     85% 0 mm 7 W/m2
06:48 -2.3 °C -4.4 °C 1017.2 hPa Calm     85% 0 mm 11 W/m2
06:54 -2.2 °C -4.4 °C 1017.2 hPa Calm   1.6 km/h 85% 0 mm 14 W/m2
07:00 -2.2 °C -4.3 °C 1016.8 hPa Calm     85% 0 mm 19 W/m2
07:06 -2.2 °C -4.4 °C 1016.8 hPa Calm     85% 0 mm 25 W/m2
07:12 -2.1 °C -4.3 °C 1016.8 hPa Calm     85% 0 mm 33 W/m2
07:18 -2.1 °C -4.2 °C 1016.8 hPa Calm     85% 0 mm 40 W/m2
07:24 -1.9 °C -4.1 °C 1016.8 hPa Calm     85% 0 mm 46 W/m2
07:30 -1.9 °C -4.2 °C 1016.8 hPa Calm     84% 0 mm 53 W/m2
07:36 -1.8 °C -4.1 °C 1016.8 hPa Calm   1.6 km/h 84% 0 mm 62 W/m2
07:42 -1.6 °C -3.9 °C 1016.8 hPa Calm   1.6 km/h 84% 0 mm 70 W/m2
07:48 -1.6 °C -4.1 °C 1016.8 hPa Calm   1.6 km/h 83% 0 mm 83 W/m2
07:54 -1.4 °C -3.9 °C 1016.8 hPa NW 1.6 km/h 3.2 km/h 83% 0 mm 88 W/m2
08:00 -1.4 °C -4.1 °C 1016.8 hPa Calm   1.6 km/h 82% 0 mm 97 W/m2
08:06 -1.3 °C -4.2 °C 1016.8 hPa NNW 1.6 km/h 3.2 km/h 81% 0 mm 111 W/m2
08:12 -1.2 °C -4.2 °C 1016.8 hPa NNE 1.6 km/h 3.2 km/h 80% 0 mm 125 W/m2
08:18 -1.1 °C -4.1 °C 1016.5 hPa ENE 1.6 km/h 4.8 km/h 80% 0 mm 149 W/m2
08:24 -1 °C -4.2 °C 1016.5 hPa SE 3.2 km/h 3.2 km/h 79% 0 mm 192 W/m2
08:30 -0.8 °C -4 °C 1016.5 hPa SE 3.2 km/h 6.4 km/h 79% 0 mm 341 W/m2
08:36 -0.7 °C -4.1 °C 1016.5 hPa SE 4.8 km/h 6.4 km/h 78% 0 mm 258 W/m2
08:42 -0.6 °C -4.1 °C 1016.5 hPa ENE 3.2 km/h 3.2 km/h 77% 0 mm 225 W/m2
08:48 -0.4 °C -4.2 °C 1016.5 hPa ENE 3.2 km/h 3.2 km/h 76% 0 mm 243 W/m2
08:56 -0.2 °C -4.1 °C 1016.1 hPa East 3.2 km/h 4.8 km/h 75% 0 mm 417 W/m2
09:02 0.2 °C -3.7 °C 1016.1 hPa SSE 4.8 km/h 4.8 km/h 75% 0 mm 438 W/m2
09:08 0.4 °C -3.9 °C 1016.1 hPa ESE 4.8 km/h 6.4 km/h 73% 0 mm 469 W/m2
09:14 0.5 °C -3.8 °C 1016.1 hPa ESE 4.8 km/h 8 km/h 73% 0 mm 512 W/m2
09:20 0.9 °C -3.6 °C 1016.1 hPa NE 3.2 km/h 4.8 km/h 72% 0 mm 559 W/m2
09:26 0.6 °C -4.1 °C 1016.1 hPa SSE 4.8 km/h 8 km/h 71% 0 mm 464 W/m2
09:32 0.7 °C -4.1 °C 1016.1 hPa ENE 6.4 km/h 12.9 km/h 70% 0 mm 527 W/m2
09:38 1.3 °C -3.8 °C 1015.8 hPa SE 4.8 km/h 12.9 km/h 69% 0 mm 501 W/m2
09:44 1.2 °C -4.1 °C 1015.8 hPa East 4.8 km/h 9.7 km/h 68% 0 mm 547 W/m2
09:50 0.9 °C -4.3 °C 1015.8 hPa NE 6.4 km/h 8 km/h 68% 0 mm 504 W/m2
09:56 1.1 °C -4.2 °C 1015.5 hPa SE 6.4 km/h 9.7 km/h 68% 0 mm 438 W/m2
10:02 1.4 °C -4.5 °C 1015.1 hPa SE 6.4 km/h 9.7 km/h 65% 0 mm 710 W/m2
10:08 1.7 °C -4.4 °C 1015.1 hPa ENE 8 km/h 9.7 km/h 64% 0 mm 422 W/m2
10:14 1.7 °C -4.6 °C 1015.1 hPa SE 8 km/h 9.7 km/h 63% 0 mm 721 W/m2
10:20 1.8 °C -4.3 °C 1015.1 hPa ESE 8 km/h 8 km/h 64% 0 mm 635 W/m2
10:26 1.8 °C -4.7 °C 1015.1 hPa SE 6.4 km/h 8 km/h 62% 0 mm 554 W/m2
10:32 1.8 °C -4.9 °C 1015.1 hPa ESE 6.4 km/h 6.4 km/h 61% 0 mm 694 W/m2
10:38 1.7 °C -5.1 °C 1015.1 hPa SE 8 km/h 9.7 km/h 61% 0 mm 392 W/m2
10:44 1.6 °C -4.7 °C 1015.1 hPa ESE 8 km/h 8 km/h 63% 0 mm 582 W/m2
10:50 2.2 °C -4.4 °C 1014.8 hPa NE 8 km/h 8 km/h 62% 0 mm 923 W/m2
10:56 2.1 °C -4.4 °C 1014.4 hPa ENE 8 km/h 14.5 km/h 62% 0 mm 621 W/m2
11:02 2.3 °C -4.3 °C 1014.4 hPa ESE 4.8 km/h 6.4 km/h 62% 0 mm 533 W/m2
11:08 2 °C -4.5 °C 1014.4 hPa East 6.4 km/h 9.7 km/h 62% 0 mm 510 W/m2
11:14 2.6 °C -4.2 °C 1014.4 hPa SE 6.4 km/h 8 km/h 61% 0 mm 993 W/m2
11:20 2.6 °C -4.6 °C 1014.4 hPa ESE 6.4 km/h 6.4 km/h 59% 0 mm 534 W/m2
11:26 2.6 °C -4.7 °C 1014.1 hPa South 6.4 km/h 9.7 km/h 59% 0 mm 851 W/m2
11:32 2.3 °C -4.9 °C 1014.1 hPa ENE 6.4 km/h 6.4 km/h 59% 0 mm 863 W/m2
11:38 2.7 °C -4.3 °C 1014.1 hPa East 4.8 km/h 8 km/h 60% 0 mm 703 W/m2
11:44 2.9 °C -4.6 °C 1013.8 hPa ESE 8 km/h 8 km/h 58% 0 mm 925 W/m2
11:50 2.6 °C -4.9 °C 1013.8 hPa ENE 6.4 km/h 6.4 km/h 58% 0 mm 406 W/m2
11:56 2.6 °C -4.6 °C 1013.4 hPa ESE 4.8 km/h 11.3 km/h 59% 0 mm 388 W/m2
12:02 2.9 °C -4.6 °C 1013.1 hPa ESE 4.8 km/h 11.3 km/h 58% 0 mm 854 W/m2
12:08 3.2 °C -4.3 °C 1013.1 hPa East 8 km/h 11.3 km/h 58% 0 mm 740 W/m2
12:14 3.2 °C -4.7 °C 1012.8 hPa East 8 km/h 12.9 km/h 56% 0 mm 726 W/m2
12:20 3.4 °C -4.5 °C 1012.8 hPa ESE 8 km/h 8 km/h 56% 0 mm 735 W/m2
12:26 3.4 °C -4.6 °C 1012.4 hPa NE 8 km/h 11.3 km/h 56% 0 mm 742 W/m2
12:32 3.6 °C -4.4 °C 1012.4 hPa East 8 km/h 17.7 km/h 56% 0 mm 728 W/m2
12:38 3.8 °C -4.7 °C 1012.4 hPa ESE 8 km/h 17.7 km/h 54% 0 mm 738 W/m2
12:44 3.8 °C -4.4 °C 1012.1 hPa SE 6.4 km/h 14.5 km/h 55% 0 mm 780 W/m2
12:50 3.3 °C -4.4 °C 1012.1 hPa ENE 6.4 km/h 6.4 km/h 57% 0 mm 613 W/m2
12:56 3.2 °C -4.3 °C 1012.1 hPa NE 8 km/h 9.7 km/h 58% 0 mm 515 W/m2
13:03 3.4 °C -3.8 °C 1012.1 hPa East 4.8 km/h 6.4 km/h 59% 0 mm 958 W/m2
13:08 3.9 °C -4.3 °C 1012.1 hPa ENE 4.8 km/h 6.4 km/h 55% 0 mm 851 W/m2
13:14 3.5 °C -4.4 °C 1011.7 hPa NE 8 km/h 14.5 km/h 56% 0 mm 744 W/m2
13:20 3.6 °C -4.4 °C 1011.7 hPa NNE 9.7 km/h 9.7 km/h 56% 0 mm 707 W/m2
13:26 3.7 °C -4.3 °C 1011.7 hPa ENE 8 km/h 9.7 km/h 56% 0 mm 459 W/m2
13:32 3.7 °C -4.1 °C 1011.4 hPa ENE 6.4 km/h 8 km/h 57% 0 mm 809 W/m2
13:38 4.2 °C -4.1 °C 1011.4 hPa East 6.4 km/h 8 km/h 55% 0 mm 747 W/m2
13:44 3.9 °C -4.3 °C 1011.4 hPa East 6.4 km/h 11.3 km/h 55% 0 mm 406 W/m2
13:50 3.9 °C -4.1 °C 1011.1 hPa North 8 km/h 8 km/h 56% 0 mm 417 W/m2
13:56 4.6 °C -3.7 °C 1010.7 hPa ENE 6.4 km/h 8 km/h 55% 0 mm 652 W/m2
14:02 4.4 °C -3.9 °C 1010.7 hPa ENE 4.8 km/h 6.4 km/h 55% 0 mm 476 W/m2
14:10 4.2 °C -4.1 °C 1010.7 hPa NE 6.4 km/h 14.5 km/h 55% 0 mm 455 W/m2
14:18 4.3 °C -3.9 °C 1010.7 hPa ENE 8 km/h 14.5 km/h 55% 0 mm 691 W/m2
14:24 4.6 °C -3.9 °C 1010.7 hPa ENE 8 km/h 16.1 km/h 54% 0 mm 503 W/m2
14:30 4 °C -4.2 °C 1010.7 hPa NE 8 km/h 8 km/h 55% 0 mm 323 W/m2
14:36 4 °C -4.2 °C 1010.4 hPa ENE 8 km/h 14.5 km/h 55% 0 mm 403 W/m2
14:42 4.3 °C -3.5 °C 1010.4 hPa NE 8 km/h 9.7 km/h 57% 0 mm 355 W/m2
14:48 4.6 °C -3.9 °C 1010.4 hPa ENE 6.4 km/h 9.7 km/h 54% 0 mm 320 W/m2
14:54 4.5 °C -4 °C 1010.4 hPa East 6.4 km/h 17.7 km/h 54% 0 mm 367 W/m2
15:00 4.4 °C -3.8 °C 1010 hPa ENE 6.4 km/h 14.5 km/h 55% 0 mm 357 W/m2
15:06 4.3 °C -4 °C 1010 hPa NE 8 km/h 14.5 km/h 55% 0 mm 302 W/m2
15:12 4.1 °C -4.1 °C 1010 hPa ENE 8 km/h 12.9 km/h 55% 0 mm 274 W/m2
15:18 4.3 °C -3.7 °C 1009.7 hPa ENE 8 km/h 12.9 km/h 56% 0 mm 290 W/m2
15:24 4.4 °C -3.8 °C 1009.7 hPa ENE 4.8 km/h 6.4 km/h 55% 0 mm 380 W/m2
15:30 4.7 °C -3.8 °C 1009.7 hPa ENE 6.4 km/h 6.4 km/h 54% 0 mm 350 W/m2
15:36 4.7 °C -3.8 °C 1009.7 hPa NE 6.4 km/h 9.7 km/h 54% 0 mm 253 W/m2
15:42 4.7 °C -3.8 °C 1009.7 hPa East 6.4 km/h 11.3 km/h 54% 0 mm 221 W/m2
15:48 4.6 °C -3.9 °C 1009.7 hPa SE 8 km/h 14.5 km/h 54% 0 mm 199 W/m2
15:54 4.5 °C -3.8 °C 1009.7 hPa ENE 8 km/h 14.5 km/h 55% 0 mm 204 W/m2
16:00 4.6 °C -3.7 °C 1009.7 hPa East 6.4 km/h 6.4 km/h 55% 0 mm 183 W/m2
16:10 4.8 °C -3.5 °C 1009.7 hPa NNE 6.4 km/h 6.4 km/h 55% 0 mm 323 W/m2
16:16 4.7 °C -3.8 °C 1009.4 hPa SE 8 km/h 12.9 km/h 54% 0 mm 237 W/m2
16:22 4.9 °C -3.4 °C 1009.4 hPa ENE 4.8 km/h 12.9 km/h 55% 0 mm 295 W/m2
16:28 4.7 °C -3.8 °C 1009.4 hPa East 6.4 km/h 12.9 km/h 54% 0 mm 141 W/m2
16:36 4.5 °C -4 °C 1009.7 hPa ENE 8 km/h 20.9 km/h 54% 0 mm 139 W/m2
16:42 4.4 °C -3.9 °C 1009.7 hPa ENE 8 km/h 8 km/h 55% 0 mm 100 W/m2
16:46 4.4 °C -3.6 °C 1009.4 hPa East 6.4 km/h 11.3 km/h 56% 0 mm 102 W/m2
16:52 4.3 °C -3.9 °C 1009.4 hPa East 6.4 km/h 11.3 km/h 55% 0 mm 91 W/m2
16:58 4.3 °C -3.7 °C 1009.7 hPa SSE 8 km/h 11.3 km/h 56% 0 mm 105 W/m2
17:04 4.2 °C -3.8 °C 1009.7 hPa East 6.4 km/h 12.9 km/h 56% 0 mm 88 W/m2
17:10 4.1 °C -3.9 °C 1009.7 hPa ENE 8 km/h 8 km/h 56% 0 mm 49 W/m2
17:16 4 °C -3.8 °C 1009.7 hPa East 6.4 km/h 8 km/h 57% 0 mm 28 W/m2
17:22 3.9 °C -3.6 °C 1009.4 hPa ENE 4.8 km/h 12.9 km/h 58% 0 mm 25 W/m2
17:28 3.8 °C -3.7 °C 1009.4 hPa ENE 6.4 km/h 12.9 km/h 58% 0 mm 16 W/m2
17:34 3.7 °C -3.8 °C 1009.4 hPa ENE 6.4 km/h 6.4 km/h 58% 0 mm 12 W/m2
17:40 3.6 °C -3.9 °C 1009.4 hPa East 6.4 km/h 9.7 km/h 58% 0 mm 16 W/m2
17:46 3.6 °C -3.7 °C 1009.4 hPa ENE 6.4 km/h 9.7 km/h 59% 0 mm 12 W/m2
17:52 3.6 °C -3.7 °C 1009.4 hPa ENE 6.4 km/h 6.4 km/h 59% 0 mm 5 W/m2
17:58 3.4 °C -3.6 °C 1009.4 hPa ENE 6.4 km/h 12.9 km/h 60% 0 mm 0 W/m2
18:04 3.4 °C -3.7 °C 1009 hPa East 6.4 km/h 8 km/h 60% 0 mm 0 W/m2
18:10 3.4 °C -3.4 °C 1009.4 hPa ENE 8 km/h 8 km/h 61% 0 mm 0 W/m2
18:16 3.3 °C -3.3 °C 1009.4 hPa East 6.4 km/h 8 km/h 62% 0 mm 0 W/m2
18:22 3.3 °C -3.3 °C 1009.4 hPa ENE 4.8 km/h 4.8 km/h 62% 0 mm 0 W/m2
18:28 3.3 °C -3.3 °C 1009.4 hPa ESE 4.8 km/h 8 km/h 62% 0 mm 0 W/m2
18:34 3.3 °C -3.3 °C 1009.4 hPa ESE 3.2 km/h 8 km/h 62% 0 mm 0 W/m2
18:40 3.3 °C -3.3 °C 1009.4 hPa East 4.8 km/h 4.8 km/h 62% 0 mm 0 W/m2
18:46 3.3 °C -3.3 °C 1009 hPa East 6.4 km/h 6.4 km/h 62% 0 mm 0 W/m2
18:52 3.2 °C -3.2 °C 1009.4 hPa ESE 4.8 km/h 4.8 km/h 63% 0 mm 0 W/m2
18:58 3.3 °C -3.1 °C 1009.4 hPa ESE 4.8 km/h 4.8 km/h 63% 0 mm 0 W/m2
19:00 3.3 °C -3.3 °C 1009.4 hPa ENE 4.8 km/h 4.8 km/h 62% 0 mm 0 W/m2
19:06 3.3 °C -3.1 °C 1009.4 hPa SE 4.8 km/h 4.8 km/h 63% 0 mm 0 W/m2
19:12 3.3 °C -3.3 °C 1009.4 hPa NE 3.2 km/h 4.8 km/h 62% 0 mm 0 W/m2
19:18 3.3 °C -3.3 °C 1009.4 hPa East 4.8 km/h 8 km/h 62% 0 mm 0 W/m2
19:24 3.3 °C -3.3 °C 1009.4 hPa East 6.4 km/h 8 km/h 62% 0 mm 0 W/m2
19:30 3.3 °C -3.3 °C 1009.4 hPa ENE 4.8 km/h 4.8 km/h 62% 0 mm 0 W/m2
19:36 3.3 °C -3.3 °C 1009.4 hPa ENE 3.2 km/h 8 km/h 62% 0 mm 0 W/m2
19:42 3.3 °C -3.1 °C 1009.4 hPa ENE 3.2 km/h 4.8 km/h 63% 0 mm 0 W/m2
19:48 3.3 °C -3.1 °C 1009.4 hPa ESE 3.2 km/h 11.3 km/h 63% 0 mm 0 W/m2
19:54 3.3 °C -3.1 °C 1009.4 hPa East 3.2 km/h 4.8 km/h 63% 0 mm 0 W/m2
20:00 3.2 °C -3.2 °C 1009 hPa East 3.2 km/h 3.2 km/h 63% 0 mm 0 W/m2
20:06 3.2 °C -3 °C 1009 hPa East 3.2 km/h 4.8 km/h 64% 0 mm 0 W/m2
20:12 3.2 °C -3.2 °C 1009 hPa East 3.2 km/h 4.8 km/h 63% 0 mm 0 W/m2
20:18 3.1 °C -3.1 °C 1009 hPa SE 1.6 km/h 4.8 km/h 64% 0 mm 0 W/m2
20:24 3.1 °C -3.3 °C 1009 hPa ENE 3.2 km/h 4.8 km/h 63% 0 mm 0 W/m2
20:30 3.1 °C -3.1 °C 1009.4 hPa East 3.2 km/h 3.2 km/h 64% 0 mm 0 W/m2
20:36 3.1 °C -3.1 °C 1009.4 hPa SE 1.6 km/h 6.4 km/h 64% 0 mm 0 W/m2
20:42 3.1 °C -3.1 °C 1009.7 hPa SE 1.6 km/h 6.4 km/h 64% 0 mm 0 W/m2
20:48 3.1 °C -3.1 °C 1009.7 hPa SE 1.6 km/h 6.4 km/h 64% 0 mm 0 W/m2
20:54 2.9 °C -2.8 °C 1010 hPa SSE 3.2 km/h 6.4 km/h 66% 0 mm 0 W/m2
21:00 2.8 °C -2.7 °C 1010.4 hPa ESE 3.2 km/h 8 km/h 67% 0 mm 0 W/m2
21:06 2.9 °C -2.4 °C 1010.4 hPa South 4.8 km/h 8 km/h 68% 0 mm 0 W/m2
21:12 2.8 °C -1.9 °C 1010.4 hPa South 6.4 km/h 6.4 km/h 71% 0 mm 0 W/m2
21:18 2.6 °C -1.6 °C 1010.4 hPa SSW 6.4 km/h 6.4 km/h 74% 0 mm 0 W/m2
21:24 2.6 °C -1.1 °C 1010.7 hPa South 4.8 km/h 6.4 km/h 77% 0 mm 0 W/m2
21:30 2.5 °C -0.8 °C 1010.7 hPa WSW 3.2 km/h 4.8 km/h 79% 0 mm 0 W/m2
21:36 2.4 °C -0.6 °C 1010.7 hPa SSW 4.8 km/h 8 km/h 81% 0 mm 0 W/m2
21:42 2.3 °C -0.4 °C 1010.7 hPa SSW 4.8 km/h 6.4 km/h 82% 1.52 mm 0 W/m2
21:48 2.2 °C -0.4 °C 1010.7 hPa SSW 3.2 km/h 6.4 km/h 83% 1.52 mm 0 W/m2
21:54 2.1 °C -0.3 °C 1010.7 hPa South 4.8 km/h 9.7 km/h 84% 1.27 mm 0 W/m2
22:00 2 °C -0.3 °C 1010.7 hPa South 4.8 km/h 9.7 km/h 85% 2.79 mm 0 W/m2
22:06 1.9 °C -0.4 °C 1010.7 hPa South 6.4 km/h 9.7 km/h 85% 2.03 mm 0 W/m2
22:12 1.7 °C -0.4 °C 1010.7 hPa South 6.4 km/h 6.4 km/h 86% 2.79 mm 0 W/m2
22:18 1.6 °C -0.3 °C 1010.7 hPa South 4.8 km/h 8 km/h 87% 1.78 mm 0 W/m2
22:24 1.5 °C -0.4 °C 1010.4 hPa South 3.2 km/h 4.8 km/h 87% 1.02 mm 0 W/m2
22:30 1.4 °C -0.5 °C 1010.4 hPa South 1.6 km/h 4.8 km/h 87% 0 mm 0 W/m2
22:36 1.3 °C -0.4 °C 1010.4 hPa South 1.6 km/h 4.8 km/h 88% 0 mm 0 W/m2
22:42 1.3 °C -0.4 °C 1010.7 hPa South 1.6 km/h 1.6 km/h 88% 0 mm 0 W/m2
22:48 1.3 °C -0.5 °C 1010.4 hPa Calm   1.6 km/h 88% 0 mm 0 W/m2
22:54 1.2 °C -0.4 °C 1010.4 hPa Calm   1.6 km/h 89% 1.27 mm 0 W/m2
23:00 1 °C -0.6 °C 1010.4 hPa Calm     89% 1.27 mm 0 W/m2
23:06 0.8 °C -0.8 °C 1010.4 hPa East 1.6 km/h 4.8 km/h 89% 1.02 mm 0 W/m2
23:12 0.6 °C -1.1 °C 1010 hPa East 1.6 km/h 1.6 km/h 89% 0 mm 0 W/m2
23:18 0.4 °C -1.2 °C 1010 hPa Calm   3.2 km/h 89% 0 mm 0 W/m2
23:24 0.4 °C -1.1 °C 1010 hPa East 1.6 km/h 3.2 km/h 90% 0 mm 0 W/m2
23:30 0.3 °C -1.1 °C 1010 hPa East 1.6 km/h 1.6 km/h 90% 0 mm 0 W/m2
23:36 0.3 °C -1.2 °C 1010 hPa East 1.6 km/h 3.2 km/h 90% 0 mm 0 W/m2
23:42 0.3 °C -1.2 °C 1010 hPa East 1.6 km/h 1.6 km/h 90% 0 mm 0 W/m2
23:48 0.2 °C -1.1 °C 1010 hPa Calm   1.6 km/h 91% 0 mm 0 W/m2
23:54 0.2 °C -1.1 °C 1010 hPa East 1.6 km/h 3.2 km/h 91% 0 mm 0 W/m2
Country Meadow, Clay, NY, USA
Compliments of Weather Underground - 2 mb